This is the latest recevied weather packets stored in our database for station/object N5SOR-1. If no packets are shown the sender has not sent any weather packets the latest 10 day(s).
| Time | Temp. | Humidity | Pressure | Rain* | Wind** | Luminosity | Snow |
|---|---|---|---|---|---|---|---|
| 1777328137 | 31.67° C | 9% | 1006.6 hPa | 0 mm | - | 360 W/m² | - |
| 1777327476 | 31.67° C | 9% | 1006.7 hPa | 0 mm | - | 390 W/m² | - |
| 1777326815 | 31.67° C | 10% | 1006.6 hPa | 0 mm | - | 369 W/m² | - |
| 1777326155 | 31.67° C | 10% | 1007 hPa | 0 mm | - | 383 W/m² | - |
| 1777325494 | 31.67° C | 9% | 1007.3 hPa | 0 mm | - | 564 W/m² | - |
| 1777324834 | 32.22° C | 9% | 1007.4 hPa | 0 mm | - | 1144 W/m² | - |
| 1777324173 | 32.22° C | 10% | 1007.6 hPa | 0 mm | - | 1011 W/m² | - |
| 1777323512 | 31.67° C | 10% | 1007.8 hPa | 0 mm | - | 914 W/m² | - |
| 1777322852 | 31.11° C | 10% | 1007.9 hPa | 0 mm | - | 538 W/m² | - |
| 1777322191 | 31.67° C | 10% | 1008.1 hPa | 0 mm | - | 722 W/m² | - |
| 1777321531 | 30.56° C | 10% | 1008.3 hPa | 0 mm | - | 527 W/m² | - |
| 1777320870 | 30.56° C | 10% | 1008.3 hPa | 0 mm | - | 543 W/m² | - |
| 1777320209 | 30.56° C | 11% | 1008.5 hPa | 0 mm | - | 856 W/m² | - |
| 1777319549 | 30.56° C | 10% | 1008.7 hPa | 0 mm | - | 543 W/m² | - |
| 1777318888 | 31.11° C | 10% | 1008.7 hPa | 0 mm | - | 1009 W/m² | - |
| 1777318227 | 31.11° C | 10% | 1008.9 hPa | 0 mm | - | 1109 W/m² | - |
| 1777317567 | 30.56° C | 10% | 1008.8 hPa | 0 mm | - | 1004 W/m² | - |
| 1777316906 | 30.56° C | 11% | 1008.9 hPa | 0 mm | - | 1317 W/m² | - |
| 1777316246 | 31.11° C | 10% | 1009 hPa | 0 mm | - | 1208 W/m² | - |
| 1777315585 | 30.56° C | 12% | 1009.1 hPa | 0 mm | - | 1229 W/m² | - |
| 1777314924 | 30.56° C | 12% | 1009.1 hPa | 0 mm | - | 522 W/m² | - |
| 1777314264 | 29.44° C | 12% | 1009.2 hPa | 0 mm | - | 494 W/m² | - |
| 1777313603 | 29.44° C | 12% | 1009.5 hPa | 0 mm | - | 534 W/m² | - |
| 1777312942 | 28.89° C | 12% | 1009.5 hPa | 0 mm | - | 555 W/m² | - |
| 1777312282 | 28.89° C | 13% | 1009.6 hPa | 0 mm | - | 512 W/m² | - |
* Rain latest hour (hover to see other rain measurements)
** Current wind speed in m/s (hover to see current wind gust speed)